timeIndex;veicoli di servizio;altri veicoli;areac
2016-01-01;347;69673;0
2016-01-02;1038;77817;0
2016-01-03;541;77259;0
2016-01-04;3193;88268;0
2016-01-05;3471;103395;0
2016-01-06;829;102093;0
2016-01-07;220;6950;0
2016-01-28;256;10061;0
2016-01-30;818;42391;0
2016-01-31;283;40851;0
2016-02-01;2311;43064;1
2016-02-02;1923;45903;1
2016-02-03;2211;46070;1
2016-02-04;1865;48017;1
2016-02-05;2171;52217;1
2016-02-06;732;47435;0
2016-02-07;257;37783;0
2016-02-08;2008;42880;1
2016-02-09;1784;46623;1
2016-02-10;2710;44965;1
2016-02-11;2158;47070;1
2016-02-12;2224;46066;1
2016-02-13;818;44440;0
2016-02-14;342;41266;0
2016-02-15;1727;43621;1
2016-02-16;2610;44025;1
2016-02-17;1917;46066;1
2016-02-18;1986;44483;1
2016-02-19;2180;48783;1
2016-02-20;821;47073;0
2016-02-21;284;41471;0
2016-02-22;2083;43135;1
2016-02-23;2286;46168;1
2016-02-24;2181;46769;1
2016-02-25;2553;48257;1
2016-02-26;2559;48985;1
2016-02-27;886;52594;0
2016-02-28;296;44073;0
2016-02-29;1770;43673;1
2016-03-01;2142;42401;1
2016-03-02;1852;46734;1
2016-03-03;2023;48475;1
2016-03-04;2381;46926;1
2016-03-05;957;46986;0
2016-03-06;249;37774;0
2016-03-07;2626;42995;1
2016-03-08;2238;45065;1
2016-03-09;2065;43789;1
2016-03-10;2087;47731;1
2016-03-11;1839;45664;1
2016-03-12;881;46056;0
2016-03-13;307;36527;0
2016-03-14;2544;39170;1
2016-03-15;1834;45298;1
2016-03-16;1844;49668;1
2016-03-17;2498;49419;1
2016-03-18;2391;52400;1
2016-03-19;773;45861;0
2016-03-20;269;40633;0
2016-03-21;1934;40386;1
2016-03-22;2034;44912;1
2016-03-23;2104;45987;1
2016-03-24;2085;43180;1
2016-03-25;1855;37917;1
2016-03-26;564;31541;0
2016-03-27;150;22864;0
2016-03-28;219;30046;0
2016-03-29;1604;34857;1
2016-03-30;1876;38781;1
2016-03-31;1481;46504;1
2016-04-01;2065;50673;1
2016-04-02;500;51194;0
2016-04-03;209;37845;0
2016-04-04;2137;44597;1
2016-04-05;1804;45362;1
2016-04-06;2148;41519;1
2016-04-07;2277;53329;1
2016-04-08;2292;50548;1
2016-04-09;841;54055;0
2016-04-10;259;44852;0
2016-04-11;2194;42016;1
2016-04-12;2726;48416;1
2016-04-13;2140;50495;1
2016-04-14;1666;52988;1
2016-04-15;2355;51597;1
2016-04-16;929;51713;0
2016-04-17;350;46000;0
2016-04-18;1857;40597;1
2016-04-19;2698;48995;1
2016-04-20;2612;41621;1
2016-04-21;2233;41974;1
2016-04-22;1832;45897;1
2016-04-23;785;37895;0
2016-04-24;220;29764;0
2016-04-25;297;32634;0
2016-04-26;1881;41940;1
2016-04-27;2135;49582;1
2016-04-28;1701;53733;1
2016-04-29;1761;45547;1
2016-04-30;777;44486;0
2016-05-01;238;43454;0
2016-05-02;2660;43600;1
2016-05-03;2203;43938;1
2016-05-04;1936;41582;1
2016-05-05;2542;41776;1
2016-05-06;2085;46386;1
2016-05-07;705;48748;0
2016-05-08;259;43313;0
2016-05-09;1984;41634;1
2016-05-10;2296;44354;1
2016-05-11;2250;50482;1
2016-05-12;1963;51073;1
2016-05-13;2130;48526;1
2016-05-14;736;50323;0
2016-05-15;299;39999;0
2016-05-16;1991;44029;1
2016-05-17;1982;41242;1
2016-05-18;2600;46038;1
2016-05-19;1866;52169;1
2016-05-20;1837;49257;1
2016-05-21;777;41447;0
2016-05-22;253;39575;0
2016-05-23;1762;40893;1
2016-05-24;1995;43118;1
2016-05-25;1939;46415;1
2016-05-26;2204;51349;1
2016-05-27;2061;48859;1
2016-05-28;752;42488;0
2016-05-29;322;41211;0
2016-05-30;2279;48899;1
2016-05-31;2066;50947;1
2016-06-01;2213;44702;1
2016-06-02;329;33432;0
2016-06-03;1414;30541;1
2016-06-04;591;35548;0
2016-06-05;255;36179;0
2016-06-06;2155;41815;1
2016-06-07;1825;46406;1
2016-06-08;1717;48274;1
2016-06-09;2273;44604;1
2016-06-10;2079;45366;1
2016-06-11;613;44619;0
2016-06-12;238;36402;0
2016-06-13;1965;38192;1
2016-06-14;1910;42900;1
2016-06-15;1639;47969;1
2016-06-16;2212;42317;1
2016-06-17;2093;42053;1
2016-06-18;707;48736;0
2016-06-19;346;46264;0
2016-06-20;2279;41530;1
2016-06-21;2092;44344;1
2016-06-22;1914;41272;1
2016-06-23;1916;46070;1
2016-06-24;1964;46366;1
2016-06-25;698;40598;0
2016-06-26;190;32646;0
2016-06-27;1694;42733;1
2016-06-28;1927;43290;1
2016-06-29;1878;42651;1
2016-06-30;2214;46577;1
2016-07-01;1682;40749;1
2016-07-02;631;33732;0
2016-07-03;238;31557;0
2016-07-04;2006;41715;1
2016-07-05;1972;45182;1
2016-07-06;1661;44333;1
2016-07-07;2017;39765;1
2016-07-08;1684;41915;1
2016-07-09;623;32377;0
2016-07-10;170;29207;0
2016-07-11;2192;37008;1
2016-07-12;2400;47716;1
2016-07-13;1936;49127;1
2016-07-14;1910;47715;1
2016-07-15;1696;43117;1
2016-07-16;530;35675;0
2016-07-17;169;29535;0
2016-07-18;1843;39088;1
2016-07-19;2041;43318;1
2016-07-20;1736;41095;1
2016-07-21;2046;43059;1
2016-07-22;1792;41641;1
2016-07-23;657;33945;0
2016-07-24;169;27775;0
2016-07-25;1437;39077;1
2016-07-26;1907;43080;1
2016-07-27;1795;44195;1
2016-07-28;1417;38854;1
2016-07-29;1166;36825;1
2016-07-30;402;30202;0
2016-07-31;166;26116;0
2016-08-01;1294;28120;1
2016-08-02;1558;30257;1
2016-08-03;1303;28727;1
2016-08-04;1279;26995;1
2016-08-05;1269;26905;1
2016-08-06;392;25944;0
2016-08-07;173;18139;0
2016-08-08;878;21305;0
2016-08-09;963;22027;0
2016-08-10;739;21741;0
2016-08-11;788;22075;0
2016-08-12;759;20057;0
2016-08-13;214;16365;0
2016-08-14;142;15055;0
2016-08-15;94;12325;0
2016-08-16;617;15986;0
2016-08-17;712;14637;0
2016-08-18;475;16781;0
2016-08-19;652;17623;0
2016-08-20;292;16547;0
2016-08-21;133;17579;0
2016-08-22;721;17981;1
2016-08-23;977;21468;1
2016-08-24;769;19102;1
2016-08-25;1168;21123;1
2016-08-26;863;21665;1
2016-08-27;388;23658;0
2016-08-28;151;22223;0
2016-08-29;1444;28155;1
2016-08-30;1495;31900;1
2016-08-31;1385;30687;1
2016-09-01;1969;37480;1
2016-09-02;1343;36419;1
2016-09-03;553;42565;0
2016-09-04;165;35421;0
2016-09-05;1535;37126;1
2016-09-06;2409;43677;1
2016-09-07;1678;40787;1
2016-09-08;1883;43047;1
2016-09-09;1805;41169;1
2016-09-10;665;42107;0
2016-09-11;183;39379;0
2016-09-12;1780;39745;1
2016-09-13;1799;46395;1
2016-09-14;2291;44197;1
2016-09-15;1944;45108;1
2016-09-16;2177;50257;1
2016-09-17;665;51035;0
2016-09-18;278;36193;0
